This is the latest recevied weather packets stored in our database for station/object N5PLO-10. If no packets are shown the sender has not sent any weather packets the latest 10 day(s).
| Time | Temp. | Humidity | Pressure | Rain* | Wind** | Luminosity | Snow |
|---|---|---|---|---|---|---|---|
| 1777755726 | 25.56° C | 45% | 1023.6 hPa | 0 mm | - | 538 W/m² | - |
| 1777755423 | 25.56° C | 41% | 1023.4 hPa | 0 mm | - | 550 W/m² | - |
| 1777755119 | 25° C | 43% | 1023.4 hPa | 0 mm | - | 565 W/m² | - |
| 1777754816 | 25° C | 42% | 1023.5 hPa | 0 mm | - | 221 W/m² | - |
| 1777754514 | 25° C | 45% | 1023.7 hPa | 0 mm | - | 68 W/m² | - |
| 1777754211 | 24.44° C | 44% | 1023.7 hPa | 0 mm | - | 79 W/m² | - |
| 1777753909 | 25° C | 45% | 1023.5 hPa | 0 mm | - | 108 W/m² | - |
| 1777753603 | 24.44° C | 49% | 1023.6 hPa | 0 mm | - | 130 W/m² | - |
| 1777753302 | 24.44° C | 46% | 1023.8 hPa | 0 mm | - | 92 W/m² | - |
| 1777752998 | 25° C | 41% | 1023.7 hPa | 0 mm | - | 59 W/m² | - |
| 1777752695 | 24.44° C | 44% | 1023.7 hPa | 0 mm | - | 87 W/m² | - |
| 1777752390 | 25° C | 42% | 1023.9 hPa | 0 mm | - | 143 W/m² | - |
| 1777752088 | 25.56° C | 44% | 1023.8 hPa | 0 mm | - | 680 W/m² | - |
| 1777751786 | 25.56° C | 44% | 1023.8 hPa | 0 mm | - | 685 W/m² | - |
| 1777751481 | 24.44° C | 43% | 1024 hPa | 0 mm | - | 694 W/m² | - |
| 1777751179 | 23.89° C | 45% | 1024.2 hPa | 0 mm | - | 706 W/m² | - |
| 1777750875 | 25° C | 44% | 1024.3 hPa | 0 mm | - | 713 W/m² | - |
| 1777750572 | 25° C | 45% | 1024.2 hPa | 0 mm | - | 720 W/m² | - |
| 1777750268 | 25° C | 44% | 1024.3 hPa | 0 mm | - | 718 W/m² | - |
| 1777749964 | 25° C | 46% | 1024.4 hPa | 0 mm | - | 734 W/m² | - |
| 1777749662 | 25.56° C | 46% | 1024.5 hPa | 0 mm | - | 739 W/m² | - |
| 1777749358 | 25° C | 48% | 1024.4 hPa | 0 mm | - | 744 W/m² | - |
| 1777749056 | 25.56° C | 44% | 1024.4 hPa | 0 mm | - | 751 W/m² | - |
| 1777748754 | 25° C | 46% | 1024.4 hPa | 0 mm | - | 755 W/m² | - |
| 1777748450 | 25.56° C | 47% | 1024.3 hPa | 0 mm | - | 756 W/m² | - |
* Rain latest hour (hover to see other rain measurements)
** Current wind speed in m/s (hover to see current wind gust speed)